[[{"header":{"parameterUnit":"m.s-1","parameterCategory":1,"la1":30.2991,"la2":30.254,"lo1":-89.0895,"lo2":-89.0444,"dy":0.0017,"dx":0.0017,"nx":28,"ny":28,"refTime":"2024-12-24T03:00:00:Z","depth":0,"parameterNumber":2,"parameterNumberName":"U-component_of_WINDS"},"data":[0,0,0,0,0,0,0,0,0,0,0,0,0,0,0,0,0,0,0,0,0,0,0,0,0,0,0,0,0,0,0,0,0,0,0,0,0,0,0,0,0,0,0,0,0,0,0,0,0,0,0,0,0,0,0,0,0,0,-7.0241,-7.0241,0,-7.0225,-7.0225,-7.0225,-7.0051,-7.0046,-7.0042,-7.0038,-7.0021,-7.0025,-7.0028,0,0,0,0,0,0,0,0,0,0,0,0,0,-7.0123,-7.0126,-7.0241,-7.0241,-7.0241,-7.0225,-7.0225,-7.0224,-7.0051,-7.0046,-7.0041,-7.0036,-7.002,-7.0024,-7.0029,0,0,0,0,0,0,0,0,0,0,0,0,0,-7.0148,-7.0127,-7.0241,-7.0153,-7.0145,-7.0225,-7.0225,-7.0224,-7.0053,-7.0046,-7.0039,-7.0033,-7.0019,-7.0024,-7.0029,-7.0193,0,0,-7.0046,-7.0048,0,0,0,0,0,0,0,0,-7.0146,-7.0152,-7.0166,-7.0159,-7.015,-7.0133,-7.0177,-7.0214,-7.0054,-7.0088,-7.0038,-7.003,-7.0064,-7.0065,-7.0076,-7.0193,-7.0192,-7.0046,-7.0049,-7.0052,-7.0053,0,0,0,0,0,0,0,-7.0145,-7.0152,-7.0235,-7.0166,-7.0157,-7.0114,-7.011,-7.0183,-7.0112,-7.0084,-7.0071,-7.0072,-7.0058,-7.0071,-7.0075,-7.0192,-7.0046,-7.0051,-7.0054,-7.0056,-7.0442,-7.0449,0,0,0,0,0,0,-7.0156,-7.0152,-7.0235,-7.0234,-7.0132,-7.0121,-7.0117,-7.0145,-7.0111,-7.01,-7.0078,-7.0064,-7.0065,-7.0068,-7.0073,-7.0262,-7.0052,-7.0057,-7.006,-7.0435,-7.0444,-7.0451,0,0,0,0,0,0,-7.0154,-7.0165,-7.0236,-7.019,-7.0195,-7.013,-7.0163,-7.0148,-7.0161,-7.0106,-7.0093,-7.0104,-7.006,-7.0066,-7.0165,-7.0259,-7.0059,-7.0064,-7.0427,-7.0438,-7.0447,-7.0643,0,0,0,0,0,0,-7.0151,-7.0165,-7.0226,-7.0192,-7.0199,-7.0328,-7.0169,-7.0153,-7.0171,-7.0153,-7.0128,-7.0117,-7.0056,-7.0158,-7.017,-7.0263,-7.0068,-7.0418,-7.0432,-7.0444,-7.0628,-7.0659,-7.0686,0,0,0,0,0,-7.0147,-7.0282,-7.023,-7.0242,-7.0274,-7.0334,-7.0337,-7.0264,-7.018,-7.0241,-7.0206,-7.0118,-7.0248,-7.0169,-7.0182,-7.0278,-7.0412,-7.0428,-7.0443,-7.0615,-7.0653,-7.0685,0,0,0,0,0,0,-7.0329,-7.0276,-7.0218,-7.0346,-7.0346,-7.0304,-7.0379,-7.0307,-7.033,-7.0312,-7.022,-7.0216,-7.0329,-7.0314,-7.0227,-7.0436,-7.0315,-7.0334,-7.0441,-7.0477,-7.0505,-7.0505,-7.0073,0,0,0,0,0,-7.0384,-7.0437,-7.0388,-7.0505,-7.0508,-7.0445,-7.0468,-7.0412,-7.0408,-7.0407,-7.0378,-7.0378,-7.0418,-7.0447,-7.0481,-7.0626,-7.0617,-7.0699,-7.0728,-7.0752,-7.0768,-7.0843,-7.0878,-7.0503,-7.0503,-7.0502,0,0,-7.0497,-7.0475,-7.0514,-7.0541,-7.0534,-7.0591,-7.0445,-7.0512,-7.0553,-7.0416,-7.0507,-7.0488,-7.0482,-7.0604,-7.0657,-7.0595,-7.0871,-7.0772,-7.0791,-7.0795,-7.0863,-7.0899,-7.093,-7.0513,-7.0512,-7.051,0,0,-7.0733,-7.0722,-7.0818,-7.0815,-7.0807,-7.0764,-7.0788,-7.0758,-7.074,-7.083,-7.0729,-7.0778,-7.085,-7.0849,-7.0858,-7.1097,-7.1017,-7.1111,-7.1261,-7.1335,-7.1365,-7.1391,-7.1475,-7.1506,-7.1129,-7.1129,-7.1129,0,-7.0874,-7.0956,-7.0877,-7.095,-7.0965,-7.0846,-7.0942,-7.0943,-7.0947,-7.096,-7.0891,-7.098,-7.0967,-7.1088,-7.1146,-7.1158,-7.1182,-7.1112,-7.1367,-7.1392,-7.1415,-7.1494,-7.1526,-7.114,-7.1139,-7.1138,-7.1137,0,-7.113,-7.1189,-7.1268,-7.1275,-7.1299,-7.1384,-7.1318,-7.1352,-7.1296,-7.126,-7.1354,-7.1336,-7.1364,-7.1389,-7.1334,-7.1503,-7.1464,-7.1383,-7.1259,-7.1464,-7.1536,-7.1566,-7.1157,-7.1153,-7.1149,-7.1146,0,0,-7.1476,-7.1441,-7.1471,-7.1472,-7.1456,-7.15,-7.1581,-7.1608,-7.1639,-7.1647,-7.1711,-7.1777,-7.1701,-7.1712,-7.1656,-7.1722,-7.1911,-7.1632,-7.1631,-7.1683,-7.2095,-7.2155,-7.2191,-7.186,-7.1865,-7.1869,-7.2095,0,-7.1702,-7.1835,-7.1768,-7.1911,-7.1963,-7.1853,-7.1922,-7.192,-7.1891,-7.1931,-7.1898,-7.1945,-7.1843,-7.1849,-7.1909,-7.1876,-7.1992,-7.1859,-7.1918,-7.1921,-7.192,-7.2229,-7.2292,-7.2506,-7.2123,-7.2128,-7.2131,0,-7.1981,-7.2002,-7.215,-7.2125,-7.2144,-7.2208,-7.2229,-7.227,-7.2266,-7.2239,-7.2253,-7.2182,-7.2259,-7.214,-7.2244,-7.2155,-7.2176,-7.2163,-7.217,-7.217,-7.2037,-7.2236,-7.2572,-7.2604,-7.2176,-7.2172,-7.2169,0,-7.2217,-7.2281,-7.2378,-7.2384,-7.2357,-7.2405,-7.2396,-7.2385,-7.2407,-7.2426,-7.2439,-7.2467,-7.2482,-7.2506,-7.2445,-7.2363,-7.2558,-7.2433,-7.2537,-7.2539,-7.258,-7.2578,-7.2923,-7.2599,-7.2598,-7.2598,-7.2597,0,-7.2474,-7.2568,-7.2483,-7.2543,-7.2646,-7.2568,-7.2672,-7.2652,-7.2644,-7.2697,-7.2604,-7.2657,-7.2574,-7.2618,-7.2571,-7.2665,-7.2673,-7.2653,-7.2639,-7.266,-7.2662,-7.267,-7.2652,-7.2606,-7.2604,-7.2603,-7.2601,0,-7.2752,-7.2699,-7.2797,-7.2765,-7.276,-7.2837,-7.2809,-7.2863,-7.2828,-7.2897,-7.2909,-7.2854,-7.2901,-7.2843,-7.2886,-7.2854,-7.2981,-7.2946,-7.2982,-7.2971,-7.3078,-7.3068,-7.3437,-7.3481,-7.3132,-7.3136,-7.3138,0,-7.2918,-7.2988,-7.2965,-7.2994,-7.2991,-7.304,-7.3061,-7.2989,-7.3016,-7.3018,-7.3072,-7.3112,-7.3139,-7.322,-7.3184,-7.3216,-7.318,-7.3307,-7.3184,-7.3203,-7.3179,-7.3175,-7.3181,-7.3331,-7.3336,-7.3339,-7.3342,0,-7.3218,-7.3189,-7.3224,-7.3252,-7.3281,-7.3299,-7.3309,-7.3339,-7.3264,-7.3299,-7.3346,-7.3368,-7.3412,-7.3452,-7.3475,-7.3466,-7.3392,-7.3382,-7.3407,-7.3428,-7.3445,-7.3435,-7.3048,-7.3373,-7.3369,-7.3367,-7.3366,-7.3364,-7.3443,-7.3501,-7.3493,-7.3536,-7.3537,-7.355,-7.3599,-7.3571,-7.3609,-7.3639,-7.3595,-7.3654,-7.365,-7.3673,-7.3673,-7.3718,-7.3663,-7.3701,-7.3709,-7.3719,-7.3735,-7.3441,-7.3722,-7.3721,-7.372,-7.372,-7.3719,0,-7.3736,-7.3727,-7.3768,-7.3786,-7.382,-7.3749,-7.3758,-7.3791,-7.3845,-7.3847,-7.3877,-7.3932,-7.3972,-7.394,-7.3973,-7.4016,-7.3982,-7.4026,-7.4021,-7.402,-7.3783,-7.3756,-7.4053,-7.4053,-7.4053,-7.4053,-7.4052,-7.4052,-7.3893,-7.3986,-7.3957,-7.405,-7.4039,-7.4097,-7.4108,-7.4119,-7.4121,-7.4187,-7.4219,-7.4199,-7.4188,-7.4219,-7.4253,-7.4242,-7.4258,-7.4314,-7.4291,-7.407,-7.4037,-7.4005,-7.398,-7.4318,-7.4319,-7.4524,-7.4526,-7.4527]},{"header":{"parameterUnit":"m.s-1","parameterCategory":1,"la1":30.2991,"la2":30.254,"lo1":-89.0895,"lo2":-89.0444,"dy":0.0017,"dx":0.0017,"nx":28,"ny":28,"refTime":"2024-12-24T03:00:00:Z","depth":0,"parameterNumber":3,"parameterNumberName":"V-component_of_WINDS"},"data":[0,0,0,0,0,0,0,0,0,0,0,0,0,0,0,0,0,0,0,0,0,0,0,0,0,0,0,0,0,0,0,0,0,0,0,0,0,0,0,0,0,0,0,0,0,0,0,0,0,0,0,0,0,0,0,0,0,0,0.0334,0.0335,0,0.0362,0.0362,0.0363,0.0412,0.0413,0.0414,0.0414,0.0441,0.044,0.044,0,0,0,0,0,0,0,0,0,0,0,0,0,0.0323,0.0323,0.0334,0.0335,0.0335,0.0362,0.0362,0.0363,0.0412,0.0413,0.0414,0.0415,0.0441,0.044,0.044,0,0,0,0,0,0,0,0,0,0,0,0,0,0.0337,0.0323,0.0334,0.0363,0.0365,0.0362,0.0362,0.0363,0.0411,0.0413,0.0414,0.0415,0.0441,0.044,0.044,0.0411,0,0,0.0439,0.0439,0,0,0,0,0,0,0,0,0.0336,0.0337,0.0358,0.0361,0.0364,0.0385,0.0368,0.0379,0.0411,0.0394,0.0415,0.0416,0.0421,0.0422,0.0424,0.0412,0.0413,0.0439,0.0439,0.0439,0.0439,0,0,0,0,0,0,0,0.0335,0.0336,0.0345,0.0358,0.0362,0.0374,0.0377,0.037,0.0399,0.0395,0.0399,0.0402,0.0423,0.0424,0.0425,0.0413,0.0439,0.0439,0.0439,0.0439,0.038,0.0379,0,0,0,0,0,0,0.033,0.0335,0.0344,0.0346,0.0353,0.0373,0.0377,0.0377,0.0399,0.0404,0.0401,0.0404,0.0424,0.0426,0.0426,0.0395,0.0439,0.0439,0.0439,0.0382,0.038,0.0378,0,0,0,0,0,0,0.033,0.033,0.0343,0.0342,0.0344,0.0372,0.0371,0.0377,0.0378,0.0403,0.0408,0.0397,0.0425,0.0427,0.0415,0.0396,0.0439,0.0439,0.0383,0.0381,0.0379,0.033,0,0,0,0,0,0,0.0329,0.033,0.0319,0.0341,0.0344,0.0331,0.037,0.0376,0.0378,0.0383,0.0401,0.0406,0.0427,0.0415,0.0415,0.0397,0.0438,0.0385,0.0382,0.038,0.0333,0.0327,0.0321,0,0,0,0,0,0.0329,0.0303,0.0318,0.0319,0.0331,0.033,0.0332,0.0357,0.0376,0.0366,0.0382,0.0405,0.0398,0.0413,0.0413,0.0395,0.0386,0.0383,0.038,0.0336,0.0328,0.0321,0,0,0,0,0,0,0.0276,0.0306,0.0323,0.0304,0.0314,0.0338,0.0325,0.0347,0.0351,0.0355,0.0385,0.0389,0.0373,0.0383,0.0399,0.0369,0.0396,0.0393,0.0363,0.0355,0.0349,0.0347,0.0438,0,0,0,0,0,0.0263,0.026,0.0286,0.0267,0.0271,0.0297,0.0298,0.0317,0.0328,0.0332,0.0347,0.0357,0.0358,0.0357,0.0358,0.0335,0.0341,0.0323,0.0316,0.0311,0.0308,0.0298,0.0291,0.0368,0.0368,0.0368,0,0,0.0234,0.025,0.0246,0.0257,0.0267,0.0263,0.03,0.0294,0.0292,0.0331,0.0321,0.0333,0.0346,0.0329,0.0322,0.0336,0.0288,0.0307,0.0303,0.0302,0.0294,0.0287,0.028,0.0366,0.0366,0.0367,0,0,0.0181,0.0192,0.0179,0.0189,0.0204,0.0222,0.0219,0.024,0.025,0.0241,0.027,0.0268,0.0267,0.0276,0.028,0.0233,0.0255,0.0232,0.0199,0.0189,0.0183,0.0178,0.0162,0.0156,0.0229,0.0229,0.0229,0,0.0144,0.014,0.0168,0.0162,0.0166,0.0202,0.0189,0.0197,0.0211,0.0213,0.0229,0.0231,0.0242,0.0229,0.0217,0.0219,0.0217,0.023,0.0182,0.0177,0.0172,0.0157,0.0151,0.0226,0.0227,0.0227,0.0227,0,0.0094,0.0091,0.0078,0.0093,0.0095,0.0085,0.0112,0.0112,0.0131,0.0147,0.0138,0.0153,0.016,0.0158,0.0175,0.0147,0.0156,0.0176,0.0204,0.0162,0.0148,0.0143,0.0222,0.0223,0.0224,0.0225,0,0,0.0007,0.004,0.0034,0.0043,0.0063,0.0062,0.0053,0.0061,0.006,0.0069,0.0064,0.0064,0.0084,0.0089,0.0108,0.0099,0.0062,0.0121,0.0122,0.011,0.0034,0.0018,0.0011,0.0077,0.0076,0.0076,0.0033,0,-0.0042,-0.0053,-0.0026,-0.0044,-0.0046,-0.001,-0.0017,-0.0005,0.0011,0.0012,0.0029,0.0029,0.0054,0.0058,0.0051,0.0068,0.0047,0.0072,0.0073,0.0072,0.0069,0.0004,-0.0012,-0.0053,0.0028,0.0027,0.0026,0,-0.01,-0.0092,-0.0109,-0.0085,-0.0085,-0.0092,-0.0082,-0.0081,-0.0067,-0.0054,-0.0048,-0.0025,-0.003,-0.0003,-0.001,0.0006,0.0008,0.0017,0.0016,0.0017,0.0047,0.0004,-0.0066,-0.0072,0.0018,0.0019,0.0019,0,-0.016,-0.0154,-0.0163,-0.0157,-0.013,-0.0135,-0.0124,-0.0107,-0.0104,-0.0096,-0.0093,-0.0086,-0.0082,-0.0077,-0.0052,-0.0034,-0.0062,-0.0033,-0.0052,-0.0052,-0.0059,-0.0059,-0.0129,-0.0059,-0.0059,-0.0058,-0.0058,0,-0.0217,-0.0229,-0.0189,-0.0195,-0.0207,-0.0175,-0.0188,-0.0174,-0.0159,-0.0161,-0.013,-0.0133,-0.01,-0.0099,-0.0079,-0.0088,-0.0086,-0.0077,-0.0071,-0.0079,-0.008,-0.0077,-0.0074,-0.006,-0.006,-0.0059,-0.0059,0,-0.0287,-0.026,-0.0268,-0.024,-0.0234,-0.0244,-0.022,-0.0224,-0.0206,-0.0208,-0.0207,-0.0179,-0.0176,-0.015,-0.0142,-0.0129,-0.0144,-0.0133,-0.0149,-0.0145,-0.0165,-0.0163,-0.0236,-0.0243,-0.0169,-0.0169,-0.017,0,-0.0324,-0.0332,-0.0305,-0.0303,-0.0293,-0.0292,-0.0287,-0.0257,-0.0254,-0.0236,-0.0242,-0.0236,-0.0229,-0.0226,-0.0205,-0.0198,-0.0186,-0.0212,-0.0185,-0.0192,-0.0186,-0.0185,-0.0185,-0.0218,-0.0219,-0.022,-0.0221,0,-0.0394,-0.0379,-0.0374,-0.0364,-0.0359,-0.035,-0.0339,-0.034,-0.0305,-0.0303,-0.0299,-0.0294,-0.0284,-0.0278,-0.0267,-0.0256,-0.0233,-0.0229,-0.0233,-0.0241,-0.0249,-0.0244,-0.0164,-0.0228,-0.0227,-0.0226,-0.0226,-0.0226,-0.0448,-0.0452,-0.0433,-0.0428,-0.0416,-0.0405,-0.0407,-0.0388,-0.0383,-0.0372,-0.0354,-0.0352,-0.0335,-0.0318,-0.0308,-0.0306,-0.0292,-0.0298,-0.03,-0.0302,-0.0305,-0.0249,-0.0304,-0.0304,-0.0304,-0.0303,-0.0303,0,-0.0514,-0.05,-0.0495,-0.0479,-0.0475,-0.0452,-0.0438,-0.0435,-0.0433,-0.0419,-0.0413,-0.0407,-0.0401,-0.0378,-0.0369,-0.0372,-0.0361,-0.0371,-0.037,-0.0367,-0.0318,-0.0315,-0.038,-0.0379,-0.0379,-0.0379,-0.0379,-0.0379,-0.0549,-0.0555,-0.0538,-0.0537,-0.0523,-0.0519,-0.0513,-0.0503,-0.0491,-0.0486,-0.048,-0.0465,-0.0447,-0.0436,-0.0429,-0.0423,-0.0421,-0.0434,-0.0424,-0.0378,-0.0371,-0.0364,-0.0361,-0.0434,-0.0434,-0.0473,-0.0473,-0.0473]}]]